Regional Weather Roundup
Issued by NWS Albany, NY

Home | Current Version | Previous Version | Graphics & Text | Print | Product List | Glossary On
Versions: 1 2 3 4 5 6 7 8 9 10 11 12 13 14 15 16 17 18 19 20 21 22 23 24 25 26 27 28 29 30 31 32 33 34 35 36 37 38 39 40 41 42 43 44 45 46 47 48 49 50
000
ASUS41 KALY 032310
RWRALY

NEW YORK STATE HOURLY WEATHER ROUNDUP
NATIONAL WEATHER SERVICE ALBANY NY
700 PM EDT SUN MAY 03 2015

NOTE: "FAIR" INDICATES FEW OR NO CLOUDS BELOW 12,000 FEET WITH NO
SIGNIFICANT WEATHER AND/OR NO OBSTRUCTIONS TO VISIBILITY.

NYZ032-033-038>043-046>054-057>066-NYZ062>081-040000-
EAST


CITY           SKY/WX    TMP DP  RH WIND       PRES   REMARKS
ALBANY         PTCLDY    75  39  27 S8        30.02R
GLENS FALLS    PTCLDY    73  42  32 S5        30.01S
POUGHKEEPSIE   PTCLDY    78  38  23 CALM      30.03S
NEWBURGH       PTCLDY    75  37  25 VRB5      30.06R
MONTGOMERY     MOCLDY    72  48  42 SE3       30.04R
WHITE PLAINS   PTCLDY    66  42  41 VRB7      30.08R
ISLIP          MOCLDY    56  45  66 S10       30.10S
NEW YORK CITY  MOCLDY    66  43  43 SE9       30.08R
CENTRAL PARK   PTCLDY    69  37  30 VRB6      30.10R
$$

NYZ005>009-017-018-044>046-055-056-040000-
CENTRAL


CITY           SKY/WX    TMP DP  RH WIND       PRES   REMARKS
FULTON         SUNNY     74  41  30 CALM      30.04S
SYRACUSE       MOSUNNY   75  40  28 NW5       30.03F
ROME           SUNNY     72  37  28 NW12      30.05R
ELMIRA         SUNNY     75  40  28 CALM      30.04S
BINGHAMTON     SUNNY     71  36  27 N6        30.08S
MONTICELLO     MOCLDY    72  34  25 CALM      30.09S
$$

NYZ026>034-041>043-040000-
NORTH


CITY           SKY/WX    TMP DP  RH WIND       PRES   REMARKS
WATERTOWN      SUNNY     71  39  31 W5        30.03S
FORT DRUM      NOT AVBL
MASSENA        SUNNY     73  39  29 SW10      30.00S
SARANAC LAKE   PTCLDY    69  33  26 W7        30.03R
PLATTSBURGH    CLOUDY    68  39  34 SE3       29.99R
$$

NYZ001>004-010>016-019>021-040000-
WEST


CITY           SKY/WX    TMP DP  RH WIND       PRES   REMARKS
NIAGARA FALLS  MOSUNNY   71  40  32 SW14      30.03F
BUFFALO        MOSUNNY   67  38  34 SW13      30.06S
DUNKIRK        SUNNY     69  39  33 SW8       30.07S
JAMESTOWN      SUNNY     70  37  30 NW8       30.10S
WELLSVILLE     MOSUNNY   68  34  28 W5        30.10S
ROCHESTER      MOSUNNY   75  37  25 W9        30.04S
PENN YAN       MOSUNNY   69  46  43 CALM      30.06S
$$

             KEY
       WCI = WIND CHILL INDEX
       VSB = VISIBILITY
       HX  = HEAT INDEX
$$


USA.gov is the U.S. government's official web portal to all federal, state and local government web resources and services.